Location: Poughquag
(41.6090°N, 73.6820°W)
Time: 14:54:04
(UTC-04:00)

Vanguard 3 - Pass Details

Date: 05 June 2020
Orbit: 510 x 3261 km, 33.3° (Epoch: 05 July)

Event Time Altitude Azimuth Distance (km) Brightness Sun altitude
Exits shadow 23:35:54 26° 140° (SE) 4,926 10.5 -23.2°
Drops below altitude 10° 23:49:01 10° 94° (E) 5,681 11.2 -24.0°
Sets 23:54:00 0° 83° (E) 6,367 11.6 -24.2°
